| time (UTC) | temp F | wind direction | speed knots | gust knots | rain 1hr in | rain 24hr in | rain mn in | humidity % | barometer mb |
| 20260503072207 | 60 | 155 | 3.5 | 6.1 | 0.01 | 0.28 | 0.12 | 93 | 1009.7 |
| 20260503071706 | 60 | 162 | 2.6 | 5.2 | 0.01 | 0.28 | 0.12 | 93 | 1009.7 |
| 20260503071206 | 59 | 151 | 2.6 | 5.2 | 0.01 | 0.28 | 0.12 | 94 | 1009.8 |
| 20260503070706 | 59 | 171 | 2.6 | 6.1 | 0.01 | 0.28 | 0.12 | 94 | 1009.8 |
| 20260503070208 | 59 | 169 | 3.5 | 6.1 | 0.01 | 0.28 | 0.12 | 94 | 1009.8 |
| 20260503060206 | 58 | 144 | 2.6 | 6.1 | 0.00 | 0.28 | 0.11 | 94 | 1009.9 |
| 20260503054706 | 58 | 148 | 2.6 | 5.2 | 0.00 | 0.28 | 0.11 | 94 | 1010.0 |
| 20260503054206 | 58 | 150 | 1.7 | 4.3 | 0.00 | 0.28 | 0.11 | 94 | 1010.0 |
| 20260503053707 | 58 | 157 | 2.6 | 4.3 | 0.00 | 0.28 | 0.11 | 94 | 1010.1 |
| 20260503053206 | 58 | 143 | 0.9 | 2.6 | 0.00 | 0.28 | 0.11 | 94 | 1010.1 |
| 20260503052705 | 58 | 157 | 0.9 | 2.6 | 0.00 | 0.28 | 0.11 | 94 | 1010.1 |
| 20260503051706 | 58 | 164 | 0.0 | 1.7 | 0.00 | 0.28 | 0.11 | 94 | 1010.2 |
| 20260503051206 | 57 | 164 | 1.7 | 2.6 | 0.00 | 0.28 | 0.11 | 94 | 1010.1 |
| 20260503050706 | 57 | 162 | 1.7 | 2.6 | 0.00 | 0.28 | 0.11 | 94 | 1010.2 |
| 20260503050206 | 57 | 139 | 1.7 | 2.6 | 0.00 | 0.28 | 0.11 | 94 | 1010.1 |
| 20260503045706 | 57 | 145 | 1.7 | 2.6 | 0.00 | 0.28 | 0.11 | 94 | 1010.1 |
| 20260503045206 | 57 | 149 | 0.9 | 2.6 | 0.00 | 0.28 | 0.11 | 94 | 1010.2 |
| 20260503044706 | 57 | 148 | 0.0 | 2.6 | 0.00 | 0.28 | 0.11 | 94 | 1010.2 |
| 20260503044206 | 57 | 167 | 0.9 | 2.6 | 0.00 | 0.28 | 0.11 | 94 | 1010.1 |
| 20260503043706 | 57 | 167 | 1.7 | 2.6 | 0.01 | 0.28 | 0.11 | 94 | 1010.2 |
| 20260503043205 | 57 | 156 | 1.7 | 2.6 | 0.01 | 0.28 | 0.11 | 94 | 1010.2 |
| 20260503042206 | 57 | 142 | 1.7 | 2.6 | 0.01 | 0.28 | 0.11 | 94 | 1010.1 |
| 20260503041705 | 57 | 142 | 2.6 | 2.6 | 0.02 | 0.28 | 0.11 | 94 | 1010.1 |
| 20260503040705 | 57 | 136 | 1.7 | 4.3 | 0.03 | 0.28 | 0.11 | 94 | 1010.2 |
| 20260503040206 | 57 | 141 | 2.6 | 6.1 | 0.03 | 0.28 | 0.11 | 94 | 1010.2 |
| 20260503035205 | 57 | 157 | 1.7 | 5.2 | 0.04 | 0.28 | 0.11 | 94 | 1010.3 |
| 20260503034706 | 57 | 117 | 3.5 | 6.1 | 0.04 | 0.28 | 0.11 | 94 | 1010.1 |
| 20260503034205 | 57 | 130 | 1.7 | 5.2 | 0.04 | 0.28 | 0.11 | 94 | 1010.2 |
| 20260503033705 | 58 | 140 | 2.6 | 6.1 | 0.03 | 0.27 | 0.10 | 94 | 1010.3 |
| 20260503033206 | 58 | 127 | 1.7 | 2.6 | 0.03 | 0.27 | 0.10 | 94 | 1010.4 |
| 20260503032705 | 58 | 133 | 1.7 | 2.6 | 0.03 | 0.27 | 0.10 | 94 | 1010.5 |
| 20260503031705 | 58 | 134 | 1.7 | 2.6 | 0.02 | 0.25 | 0.09 | 94 | 1010.9 |
| 20260503031206 | 58 | 136 | 2.6 | 4.3 | 0.02 | 0.25 | 0.09 | 94 | 1011.0 |
| 20260503030205 | 58 | 159 | 2.6 | 4.3 | 0.01 | 0.24 | 0.08 | 93 | 1011.1 |
| 20260503025705 | 58 | 159 | 2.6 | 2.6 | 0.00 | 0.24 | 0.07 | 93 | 1011.2 |
| 20260503025206 | 58 | 175 | 2.6 | 7.0 | 0.00 | 0.24 | 0.07 | 93 | 1011.3 |
| 20260503024706 | 58 | 163 | 4.3 | 7.0 | 0.00 | 0.24 | 0.07 | 94 | 1011.3 |
| 20260503023705 | 58 | 178 | 2.6 | 5.2 | 0.00 | 0.24 | 0.07 | 93 | 1011.3 |
| 20260503022206 | 58 | 164 | 4.3 | 8.7 | 0.00 | 0.24 | 0.07 | 93 | 1011.3 |
| 20260503021205 | 58 | 151 | 2.6 | 5.2 | 0.00 | 0.24 | 0.07 | 93 | 1011.1 |
| 20260503020705 | 58 | 164 | 2.6 | 5.2 | 0.00 | 0.24 | 0.07 | 93 | 1011.2 |
| 20260503015705 | 57 | 161 | 2.6 | 4.3 | 0.00 | 0.24 | 0.07 | 93 | 1011.2 |
| 20260503015205 | 57 | 170 | 1.7 | 4.3 | 0.00 | 0.24 | 0.07 | 93 | 1011.3 |
| 20260503013205 | 57 | 147 | 1.7 | 2.6 | 0.00 | 0.24 | 0.07 | 93 | 1011.2 |
| 20260503012705 | 57 | 153 | 1.7 | 2.6 | 0.00 | 0.24 | 0.07 | 93 | 1011.1 |
| 20260503012205 | 57 | 147 | 1.7 | 2.6 | 0.00 | 0.24 | 0.07 | 92 | 1011.1 |
| 20260503011705 | 57 | 145 | 1.7 | 2.6 | 0.00 | 0.24 | 0.07 | 92 | 1011.1 |
| 20260503011205 | 57 | 118 | 1.7 | 2.6 | 0.00 | 0.24 | 0.07 | 92 | 1011.1 |
| 20260503010705 | 57 | 141 | 1.7 | 5.2 | 0.00 | 0.24 | 0.07 | 92 | 1011.2 |
| 20260503010205 | 57 | 122 | 2.6 | 5.2 | 0.00 | 0.24 | 0.07 | 92 | 1011.3 |
| 20260503005705 | 57 | 134 | 1.7 | 5.2 | 0.00 | 0.24 | 0.07 | 92 | 1011.3 |
| 20260503005205 | 57 | 128 | 2.6 | 7.0 | 0.00 | 0.24 | 0.07 | 92 | 1011.3 |
| 20260503004205 | 58 | 109 | 4.3 | 7.0 | 0.00 | 0.24 | 0.07 | 92 | 1011.3 |
| 20260503003705 | 58 | 116 | 5.2 | 7.8 | 0.00 | 0.24 | 0.07 | 92 | 1011.3 |
| 20260503002705 | 58 | 115 | 4.3 | 7.0 | 0.00 | 0.24 | 0.07 | 92 | 1011.3 |
| 20260503002205 | 58 | 108 | 4.3 | 7.8 | 0.00 | 0.24 | 0.07 | 93 | 1011.4 |
| 20260503001705 | 58 | 111 | 3.5 | 7.0 | 0.00 | 0.24 | 0.07 | 92 | 1011.4 |
| 20260503001205 | 57 | 113 | 4.3 | 7.0 | 0.00 | 0.24 | 0.07 | 92 | 1011.5 |
| 20260503000705 | 57 | 107 | 4.3 | 7.0 | 0.00 | 0.24 | 0.07 | 92 | 1011.6 |
| 20260503000205 | 57 | 110 | 4.3 | 7.0 | 0.00 | 0.24 | 0.07 | 92 | 1011.7 |
| 20260502235705 | 57 | 116 | 2.6 | 5.2 | 0.00 | 0.24 | 0.07 | 93 | 1012.0 |
| 20260502234205 | 57 | 117 | 2.6 | 6.1 | 0.00 | 0.24 | 0.07 | 92 | 1012.1 |
| 20260502233706 | 57 | 136 | 2.6 | 5.2 | 0.00 | 0.24 | 0.07 | 92 | 1012.1 |
| 20260502233205 | 57 | 135 | 2.6 | 6.1 | 0.00 | 0.24 | 0.07 | 92 | 1012.0 |
| 20260502232705 | 57 | 117 | 4.3 | 6.1 | 0.01 | 0.24 | 0.07 | 92 | 1012.1 |
| 20260502232206 | 57 | 122 | 4.3 | 7.8 | 0.01 | 0.24 | 0.07 | 92 | 1012.1 |
| 20260502231705 | 57 | 117 | 4.3 | 7.0 | 0.02 | 0.24 | 0.07 | 92 | 1012.0 |
| 20260502231205 | 57 | 131 | 3.5 | 7.0 | 0.03 | 0.24 | 0.07 | 92 | 1012.3 |
| 20260502230205 | 57 | 128 | 3.5 | 6.1 | 0.06 | 0.24 | 0.07 | 92 | 1012.1 |
| 20260502225705 | 57 | 121 | 4.3 | 7.8 | 0.08 | 0.24 | 0.07 | 92 | 1012.1 |
| 20260502225205 | 57 | 115 | 4.3 | 7.0 | 0.09 | 0.24 | 0.07 | 92 | 1012.1 |
| 20260502224705 | 56 | 110 | 3.5 | 7.8 | 0.10 | 0.24 | 0.07 | 93 | 1012.1 |
| 20260502224205 | 56 | 103 | 2.6 | 7.8 | 0.12 | 0.24 | 0.07 | 92 | 1012.2 |
| 20260502223705 | 56 | 104 | 4.3 | 8.7 | 0.14 | 0.24 | 0.07 | 92 | 1012.2 |
| 20260502223205 | 56 | 117 | 5.2 | 8.7 | 0.16 | 0.24 | 0.07 | 92 | 1012.3 |
| 20260502222705 | 56 | 108 | 4.3 | 7.8 | 0.03 | 0.23 | 0.06 | 92 | 1012.3 |
| 20260502222205 | 56 | 90 | 2.6 | 7.8 | 0.06 | 0.23 | 0.06 | 91 | 1012.3 |
| 20260502221706 | 56 | 101 | 2.6 | 7.8 | 0.05 | 0.21 | 0.05 | 91 | 1012.4 |
| 20260502221205 | 56 | 94 | 5.2 | 10.4 | 0.04 | 0.20 | 0.04 | 90 | 1012.4 |
| 20260502220706 | 56 | 104 | 6.1 | 10.4 | 0.02 | 0.19 | 0.02 | 90 | 1012.9 |
| 20260502220205 | 56 | 96 | 4.3 | 8.7 | 0.01 | 0.17 | 0.01 | 89 | 1012.9 |
| 20260502215705 | 56 | 103 | 4.3 | 8.7 | 0.16 | 0.16 | 0.16 | 89 | 1013.0 |
| 20260502215204 | 57 | 110 | 2.6 | 5.2 | 0.15 | 0.15 | 0.15 | 88 | 1013.3 |
| 20260502214205 | 58 | 103 | 1.7 | 5.2 | 0.12 | 0.12 | 0.12 | 85 | 1013.8 |
| 20260502213705 | 58 | 102 | 1.7 | 2.6 | 0.10 | 0.10 | 0.10 | 83 | 1014.1 |
| 20260502213205 | 59 | 171 | 2.6 | 7.8 | 0.08 | 0.08 | 0.08 | 79 | 1014.5 |
| 20260502212705 | 60 | 185 | 6.1 | 10.4 | 0.03 | 0.03 | 0.03 | 75 | 1014.9 |
| 20260502212205 | 60 | 186 | 4.3 | 7.8 | 0.01 | 0.01 | 0.01 | 74 | 1014.9 |
| 20260502211705 | 60 | 217 | 6.1 | 12.2 | 0.00 | 0.00 | 0.00 | 74 | 1014.3 |
| 20260502210704 | 60 | 92 | 0.9 | 2.6 | 0.00 | 0.00 | 0.00 | 73 | 1012.7 |
| 20260502210204 | 60 | 81 | 0.9 | 2.6 | 0.00 | 0.00 | 0.00 | 73 | 1012.7 |
| 20260502205705 | 60 | 74 | 2.6 | 6.1 | 0.00 | 0.00 | 0.00 | 74 | 1012.7 |
| 20260502204704 | 60 | 64 | 4.3 | 7.8 | 0.00 | 0.00 | 0.00 | 75 | 1012.8 |
| 20260502203705 | 60 | 79 | 3.5 | 10.4 | 0.00 | 0.00 | 0.00 | 75 | 1013.1 |
| 20260502203205 | 60 | 67 | 0.9 | 2.6 | 0.00 | 0.00 | 0.00 | 74 | 1013.1 |
| 20260502202204 | 60 | 75 | 2.6 | 7.0 | 0.00 | 0.00 | 0.00 | 74 | 1013.2 |
| 20260502201705 | 60 | 115 | 1.7 | 2.6 | 0.00 | 0.00 | 0.00 | 73 | 1013.3 |
| 20260502201204 | 60 | 117 | 0.9 | 2.6 | 0.00 | 0.00 | 0.00 | 73 | 1013.3 |
| 20260502200705 | 60 | 65 | 1.7 | 2.6 | 0.00 | 0.00 | 0.00 | 74 | 1013.4 |
| 20260502200206 | 60 | 57 | 1.7 | 2.6 | 0.00 | 0.00 | 0.00 | 73 | 1013.3 |
| 20260502195705 | 60 | 62 | 1.7 | 2.6 | 0.00 | 0.00 | 0.00 | 72 | 1013.4 |
| 20260502194707 | 59 | 18 | 0.9 | 2.6 | 0.00 | 0.00 | 0.00 | 73 | 1013.4 |
| 20260502194208 | 59 | 15 | 0.9 | 2.6 | 0.00 | 0.00 | 0.00 | 75 | 1013.5 |
| 20260502193706 | 60 | 20 | 0.9 | 2.6 | 0.00 | 0.00 | 0.00 | 76 | 1013.4 |
| 20260502193206 | 59 | 69 | 0.9 | 2.6 | 0.00 | 0.00 | 0.00 | 77 | 1013.6 |
| 20260502192705 | 60 | 64 | 1.7 | 2.6 | 0.00 | 0.00 | 0.00 | 76 | 1013.5 |
| 20260502192205 | 60 | 63 | 0.0 | 1.7 | 0.00 | 0.00 | 0.00 | 75 | 1013.6 |
| 20260502191704 | 60 | 63 | 0.9 | 2.6 | 0.00 | 0.00 | 0.00 | 74 | 1013.6 |
| 20260502191207 | 60 | 59 | 0.9 | 2.6 | 0.00 | 0.00 | 0.00 | 73 | 1013.6 |
| 20260502190705 | 60 | 42 | 0.9 | 1.7 | 0.00 | 0.00 | 0.00 | 71 | 1013.6 |
| 20260502190205 | 60 | 38 | 0.9 | 1.7 | 0.00 | 0.00 | 0.00 | 70 | 1013.5 |
| 20260502184705 | 61 | 342 | 1.7 | 2.6 | 0.00 | 0.00 | 0.00 | 66 | 1013.6 |
| 20260502183705 | 62 | 349 | 0.9 | 2.6 | 0.00 | 0.00 | 0.00 | 66 | 1013.6 |
| 20260502183205 | 62 | 349 | 1.7 | 4.3 | 0.00 | 0.00 | 0.00 | 66 | 1013.7 |
| 20260502182205 | 63 | 351 | 1.7 | 2.6 | 0.00 | 0.00 | 0.00 | 65 | 1013.7 |
| 20260502181704 | 63 | 336 | 2.6 | 4.3 | 0.00 | 0.00 | 0.00 | 64 | 1013.7 |
| 20260502181205 | 64 | 333 | 2.6 | 4.3 | 0.00 | 0.00 | 0.00 | 62 | 1013.6 |
| 20260502180705 | 64 | 333 | 2.6 | 4.3 | 0.00 | 0.00 | 0.00 | 61 | 1013.6 |
| 20260502170204 | 67 | 359 | 2.6 | 4.3 | 0.00 | 0.00 | 0.00 | 60 | 1014.3 |
| 20260502164205 | 69 | 343 | 5.2 | 7.8 | 0.00 | 0.00 | 0.00 | 58 | 1014.6 |
| 20260502163704 | 69 | 353 | 5.2 | 7.8 | 0.00 | 0.00 | 0.00 | 57 | 1014.7 |
| 20260502163204 | 69 | 334 | 1.7 | 5.2 | 0.00 | 0.00 | 0.00 | 57 | 1014.8 |
| 20260502162704 | 69 | 351 | 4.3 | 7.0 | 0.00 | 0.00 | 0.00 | 56 | 1014.9 |
| 20260502161705 | 69 | 355 | 2.6 | 6.1 | 0.00 | 0.00 | 0.00 | 59 | 1014.9 |
| 20260502161204 | 70 | 0 | 3.5 | 7.0 | 0.00 | 0.00 | 0.00 | 56 | 1015.0 |
| 20260502160704 | 70 | 337 | 1.7 | 6.1 | 0.00 | 0.00 | 0.00 | 57 | 1015.0 |
| 20260502152207 | 71 | 358 | 4.3 | 7.8 | 0.00 | 0.00 | 0.00 | 55 | 1015.2 |
| 20260502151707 | 72 | 358 | 4.3 | 7.8 | 0.00 | 0.00 | 0.00 | 55 | 1015.2 |
| 20260502151207 | 72 | 348 | 5.2 | 10.4 | 0.00 | 0.00 | 0.00 | 55 | 1015.2 |
| 20260502150707 | 72 | 327 | 3.5 | 7.8 | 0.00 | 0.00 | 0.00 | 56 | 1015.3 |
| 20260502150207 | 74 | 336 | 1.7 | 5.2 | 0.00 | 0.00 | 0.00 | 54 | 1015.3 |
| 20260502130707 | 71 | 239 | 2.6 | 7.0 | 0.00 | 0.00 | 0.00 | 64 | 1016.5 |
| 20260502130207 | 71 | 282 | 1.7 | 7.0 | 0.00 | 0.00 | 0.00 | 64 | 1016.6 |
| 20260502123706 | 70 | 253 | 1.7 | 5.2 | 0.00 | 0.00 | 0.00 | 68 | 1016.8 |
| 20260502123207 | 71 | 247 | 1.7 | 6.1 | 0.00 | 0.00 | 0.00 | 67 | 1016.8 |
| 20260502122206 | 69 | 259 | 2.6 | 6.1 | 0.00 | 0.00 | 0.00 | 71 | 1016.9 |
| 20260502121708 | 69 | 234 | 1.7 | 4.3 | 0.00 | 0.00 | 0.00 | 72 | 1017.0 |
| 20260502121206 | 68 | 231 | 3.5 | 7.0 | 0.00 | 0.00 | 0.00 | 72 | 1017.0 |
| 20260502120707 | 68 | 234 | 4.3 | 8.7 | 0.00 | 0.00 | 0.00 | 72 | 1017.1 |
| 20260502120207 | 69 | 223 | 4.3 | 7.0 | 0.00 | 0.00 | 0.00 | 72 | 1017.1 |
| 20260502115706 | 69 | 241 | 2.6 | 5.2 | 0.00 | 0.00 | 0.00 | 73 | 1017.2 |
| 20260502115207 | 68 | 237 | 2.6 | 6.1 | 0.00 | 0.00 | 0.00 | 72 | 1017.2 |
| 20260502114207 | 68 | 224 | 5.2 | 10.4 | 0.00 | 0.00 | 0.00 | 73 | 1017.2 |
| 20260502113706 | 67 | 233 | 3.5 | 7.8 | 0.00 | 0.00 | 0.00 | 75 | 1017.3 |
| 20260502113207 | 67 | 247 | 4.3 | 7.0 | 0.00 | 0.00 | 0.00 | 75 | 1017.3 |
| 20260502112706 | 67 | 232 | 3.5 | 10.4 | 0.00 | 0.00 | 0.00 | 76 | 1017.4 |
| 20260502112206 | 67 | 230 | 2.6 | 6.1 | 0.00 | 0.00 | 0.00 | 77 | 1017.4 |
| 20260502111706 | 67 | 222 | 2.6 | 8.7 | 0.00 | 0.00 | 0.00 | 77 | 1017.4 |
| 20260502110707 | 67 | 222 | 1.7 | 4.3 | 0.00 | 0.00 | 0.00 | 77 | 1017.4 |
| 20260502105706 | 67 | 251 | 3.5 | 8.7 | 0.00 | 0.00 | 0.00 | 76 | 1017.5 |
| 20260502105206 | 67 | 232 | 4.3 | 10.4 | 0.00 | 0.00 | 0.00 | 74 | 1017.5 |
| 20260502104707 | 67 | 207 | 4.3 | 7.0 | 0.00 | 0.00 | 0.00 | 74 | 1017.5 |
| 20260502104206 | 67 | 221 | 4.3 | 10.4 | 0.00 | 0.00 | 0.00 | 75 | 1017.5 |
| 20260502103706 | 67 | 241 | 2.6 | 7.0 | 0.00 | 0.00 | 0.00 | 77 | 1017.5 |
| 20260502103206 | 67 | 217 | 4.3 | 7.8 | 0.00 | 0.00 | 0.00 | 76 | 1017.5 |
| 20260502102206 | 67 | 264 | 1.7 | 6.1 | 0.00 | 0.00 | 0.00 | 76 | 1017.5 |
| 20260502101707 | 67 | 261 | 1.7 | 7.8 | 0.00 | 0.00 | 0.00 | 76 | 1017.5 |
| 20260502101206 | 68 | 245 | 3.5 | 7.0 | 0.00 | 0.00 | 0.00 | 74 | 1017.6 |
| 20260502100707 | 68 | 217 | 2.6 | 7.0 | 0.00 | 0.00 | 0.00 | 76 | 1017.7 |
| 20260502100206 | 67 | 216 | 4.3 | 7.8 | 0.00 | 0.00 | 0.00 | 76 | 1017.7 |